Zim Rio Grande — 9HNV9 — position and weather

sailwx.info

Track history (hours):
 
Tides and Currents Weather Stations Pressure Air Temp Water Temp Dewpoint Dewpoint Depression Visibility Wind Speed Wind Dir Waves Ship Positions

Zim Rio Grande

Last reported at 2014-Oct-25 03:33 UTC. Time now 2014-Oct-25 04:22 UTC.
Position N 35°47' E 025°49'.

Length 260 m; draft 9.9 m.

Type: Ship (hazmat cat A). MMSI: 249253000.

Date/timePositionNaut miles runAvg speedWind from/ knotsBaromVisibWave heightAir tempDewpointWater temp
2014-Oct-25 03:33N 35°47' E 025°49'47312.4
2014-Oct-23 13:21N 32°57' E 034°43'1112.4
2014-Oct-23 12:27N 32°54' E 034°56'5 0.1
2014-Oct-22 01:27N 32°52' E 034°50'1212.7
2014-Oct-22 00:33N 32°40' E 034°46'1212.6
2014-Oct-21 23:33N 32°28' E 034°43'1312.5
2014-Oct-21 22:33N 32°16' E 034°38'1312.5
2014-Oct-21 21:32N 32°04' E 034°34'  
2014-Oct-17 17:34N 36°13' E 015°30'1313.4
2014-Oct-17 16:33N 36°17' E 015°14'1413.5
2014-Oct-17 15:33N 36°20' E 014°58'1413.8
2014-Oct-17 14:33N 36°24' E 014°42'1413.8
2014-Oct-17 13:34N 36°28' E 014°25'1413.7
2014-Oct-17 12:33N 36°32' E 014°09'1413.7
2014-Oct-17 11:33N 36°37' E 013°53'1413.8
2014-Oct-17 10:33N 36°41' E 013°37'1413.7
2014-Oct-17 09:33N 36°46' E 013°20'1313.4
2014-Oct-17 08:33N 36°50' E 013°05'1313.2
2014-Oct-17 07:33N 36°54' E 012°49'1313.4
2014-Oct-17 06:33N 36°58' E 012°33'14413.8
2014-Oct-16 20:06N 37°56' E 009°47'1313.9
2014-Oct-16 19:11N 38°02' E 009°32'1013.7
2014-Oct-16 18:26N 38°06' E 009°20'3013.7
2014-Oct-16 16:14N 38°20' E 008°46'1013.8
2014-Oct-16 15:32N 38°24' E 008°35'27514.1
2014-Oct-15 20:06N 40°26' E 003°16'3 6.3
2014-Oct-15 19:33N 40°27' E 003°12'1413.9
2014-Oct-15 18:33N 40°33' E 002°55'1413.9
2014-Oct-15 17:33N 40°38' E 002°38'1414.4
2014-Oct-15 16:33N 40°43' E 002°20'1414.0
2014-Oct-15 15:33N 40°48' E 002°03'1414.0
2014-Oct-15 14:34N 40°53' E 001°46'1414.0
2014-Oct-15 13:33N 40°59' E 001°29'1413.3
2014-Oct-15 12:33N 41°05' E 001°13'  
Track history (hours):
 
Tides and Currents Weather Stations Pressure Air Temp Water Temp Dewpoint Dewpoint Depression Visibility Wind Speed Wind Dir Waves Ship Positions

Zim Rio Grande

Last reported at 2014-Oct-25 03:33 UTC. Time now 2014-Oct-25 04:22 UTC.
Position N 35°47' E 025°49'.

Length 260 m; draft 9.9 m.

Type: Ship (hazmat cat A). MMSI: 249253000.

Date/timePositionNaut miles runAvg speedWind from/ knotsBaromVisibWave heightAir tempDewpointWater temp
2014-Oct-25 03:33N 35°47' E 025°49'47312.4
2014-Oct-23 13:21N 32°57' E 034°43'1112.4
2014-Oct-23 12:27N 32°54' E 034°56'5 0.1
2014-Oct-22 01:27N 32°52' E 034°50'1212.7
2014-Oct-22 00:33N 32°40' E 034°46'1212.6
2014-Oct-21 23:33N 32°28' E 034°43'1312.5
2014-Oct-21 22:33N 32°16' E 034°38'1312.5
2014-Oct-21 21:32N 32°04' E 034°34'  
2014-Oct-17 17:34N 36°13' E 015°30'1313.4
2014-Oct-17 16:33N 36°17' E 015°14'1413.5
2014-Oct-17 15:33N 36°20' E 014°58'1413.8
2014-Oct-17 14:33N 36°24' E 014°42'1413.8
2014-Oct-17 13:34N 36°28' E 014°25'1413.7
2014-Oct-17 12:33N 36°32' E 014°09'1413.7
2014-Oct-17 11:33N 36°37' E 013°53'1413.8
2014-Oct-17 10:33N 36°41' E 013°37'1413.7
2014-Oct-17 09:33N 36°46' E 013°20'1313.4
2014-Oct-17 08:33N 36°50' E 013°05'1313.2
2014-Oct-17 07:33N 36°54' E 012°49'1313.4
2014-Oct-17 06:33N 36°58' E 012°33'14413.8
2014-Oct-16 20:06N 37°56' E 009°47'1313.9
2014-Oct-16 19:11N 38°02' E 009°32'1013.7
2014-Oct-16 18:26N 38°06' E 009°20'3013.7
2014-Oct-16 16:14N 38°20' E 008°46'1013.8
2014-Oct-16 15:32N 38°24' E 008°35'27514.1
2014-Oct-15 20:06N 40°26' E 003°16'3 6.3
2014-Oct-15 19:33N 40°27' E 003°12'1413.9
2014-Oct-15 18:33N 40°33' E 002°55'1413.9
2014-Oct-15 17:33N 40°38' E 002°38'1414.4
2014-Oct-15 16:33N 40°43' E 002°20'1414.0
2014-Oct-15 15:33N 40°48' E 002°03'1414.0
2014-Oct-15 14:34N 40°53' E 001°46'1414.0
2014-Oct-15 13:33N 40°59' E 001°29'1413.3
2014-Oct-15 12:33N 41°05' E 001°13'  

Dump ship's entire track history